This demonstration page uses our WeatherBlox Daily Observations layout. Learn more.

Left ArrowRight Arrow

Hourly Observations for March 30, 2022

Temp ( °F °C ) Dew Point ( °F °C ) Humidity (%) Winds ( mph kmh ) Pressure ( in mb ) Visibility ( mi km ) Precip ( " mm )
12:53 am 00:53 Clear 26 -3.3 19 -7.2 75 75 E 5 7 30.07 1018 10 16 0.00 0.00
1:53 am 01:53 Clear 25 -3.9 19 -7.2 78 78 E 6 9 30.06 1018 10 16 0.00 0.00
2:53 am 02:53 Clear 26 -3.3 18 -7.8 71 71 SSE 3 6 30.04 1017 10 16 0.00 0.00
3:53 am 03:53 Clear 22 -5.6 18 -7.8 85 85 Calm 30.03 1017 10 16 0.00 0.00
4:53 am 04:53 Clear 20 -6.7 16 -8.9 85 85 S 6 9 30.01 1016 10 16 0.00 0.00
5:53 am 05:53 Clear 21 -6.1 16 -8.9 81 81 NNW 3 6 30.00 1016 10 16 0.00 0.00
6:53 am 06:53 Clear 18 -7.8 14 -10 84 84 E 5 7 29.99 1016 10 16 0.00 0.00
7:53 am 07:53 Sunny 22 -5.6 19 -7.2 89 89 ENE 6 9 29.98 1015 10 16 0.00 0.00
8:53 am 08:53 Sunny 26 -3.3 20 -6.7 78 78 ENE 5 7 29.98 1015 10 16 0.00 0.00
9:53 am 09:53 Sunny 32 0 23 -5 69 69 E 6 9 29.96 1015 10 16 0.00 0.00
10:53 am 10:53 Sunny 39 3.9 24 -4.4 55 55 E 6 9 29.93 1013 10 16 0.00 0.00
11:53 am 11:53 Sunny 49 9.4 26 -3.3 41 41 undefined N/A 29.89 1012 10 16 0.00 0.00
12:53 pm 12:53 Sunny 55 12.8 26 -3.3 33 33 SW 12 19 29.85 1011 10 16 0.00 0.00
1:53 pm 13:53 Sunny 58 14.4 23 -5 26 26 SW 12 19 29.81 1010 10 16 0.00 0.00
2:53 pm 14:53 Sunny 61 16.1 22 -5.6 22 22 SW 12 19 29.78 1008 10 16 0.00 0.00
3:53 pm 15:53 Sunny 62 16.7 22 -5.6 21 21 SW 9 15 29.75 1008 10 16 0.00 0.00
4:53 pm 16:53 Sunny 63 17.2 26 -3.3 25 25 SW 8 13 29.73 1007 10 16 0.00 0.00
5:53 pm 17:53 Sunny 63 17.2 28 -2.2 27 27 SSW 10 17 29.72 1006 10 16 0.00 0.00
6:53 pm 18:53 Sunny 60 15.6 28 -2.2 30 30 SSW 6 9 29.72 1006 10 16 0.00 0.00
7:53 pm 19:53 Clear 51 10.6 27 -2.8 39 39 WNW 9 15 29.74 1007 10 16 0.00 0.00
8:53 pm 20:53 Clear 47 8.3 28 -2.2 48 48 W 9 15 29.76 1008 10 16 0.00 0.00
9:53 pm 21:53 Cloudy 46 7.8 27 -2.8 47 47 SSW 7 11 29.78 1009 10 16 0.00 0.00
10:53 pm 22:53 Cloudy 45 7.2 25 -3.9 46 46 SSW 9 15 29.78 1008 10 16 0.00 0.00
11:53 pm 23:53 Cloudy 46 7.8 24 -4.4 42 42 SW 9 15 29.77 1008 10 16 0.00 0.00

Powered by AerisWeather